Location: *
(48.7358°N, 0.3111°E)
Time: 19:39:32
(UTC+00:00)

ATLAS 2AS CENTAUR R/B - Pass Details

Date: 22 October 2019
Orbit: 926 x 1286 km, 63.7° (Epoch: 09 November)

Event Time Altitude Azimuth Distance (km) Brightness Sun altitude
Exits shadow 04:21:11 35° 252° (WSW) 1,954 3.5 -21.7°
Maximum altitude 04:24:45 62° 318° (NW) 1,428 3.1 -21.1°
Drops below altitude 10° 04:32:41 10° 39° (NE) 3,259 5.8 -19.8°
Sets 04:35:30 0° 43° (NE) 4,200 6.6 -19.4°
